Weather History for KMGY - May, 2013

Change the Weather History Date:

Tuesday, May 7, 2013

  Actual Average (KFFO) Record (KFFO)
Temperature  
Mean Temperature 63 °F -  
Max Temperature 72 °F 70 °F 86 °F (2000)
Min Temperature 54 °F 49 °F 37 °F (1997)
Degree Days  
Heating Degree Days 2    
Growing Degree Days 13 (Base 50)    
Moisture  
Dew Point 55 °F    
Average Humidity 83    
Maximum Humidity 97    
Minimum Humidity 53    
Precipitation  
Precipitation 0.02 in - - ()
Sea Level Pressure  
Sea Level Pressure 29.96 in    
Wind  
Wind Speed 6 mph (NE)    
Max Wind Speed 10 mph    
Max Gust Speed 21 mph    
Visibility 10 miles    
Events Rain    
Averages and records for this station are not official NWS values.
T = Trace of Precipitation, MM = Missing Value Source: NWS Daily Summary

Daily Weather History Graph

Daily Weather History Graph

Search for Another Location

Airport or City:

Trip Planner

Search our weather history database for the weather conditions in past years. The results will help you decide how hot, cold, wet, or windy it might be!

Date:

Astronomy

May. 07, 2013 Rise Set
Actual Time 6:30 AM EDT 8:36 PM EDT
Civil Twilight 6:00 AM EDT 9:06 PM EDT
Nautical Twilight 5:24 AM EDT 9:43 PM EDT
Astronomical Twilight 4:45 AM EDT 10:22 PM EDT
Moon 5:03 AM EDT (5/7) 6:36 PM EDT (5/7)
Length of Visible Light 15h 05m
Length of Day
14h 06m
Waning Crescent, 5% of the Moon is Illuminated
May 7
Waning Crescent
May 9
New
May 18
First Quarter
May 25
Full
May 31
Last Quarter

Hourly Weather History & Observations

Time (EDT) Temp. Dew Point Humidity Pressure Visibility Wind Dir Wind Speed Gust Speed Precip Events Conditions
12:53 AM 55.9 °F 55.0 °F 97% 29.96 in 10.0 mi NE 5.8 mph - N/A   Overcast
1:53 AM 55.9 °F 55.0 °F 97% 29.95 in 10.0 mi NE 5.8 mph - 0.01 in   Overcast
2:53 AM 55.0 °F 54.0 °F 96% 29.93 in 10.0 mi NNE 5.8 mph - 0.00 in   Overcast
3:53 AM 55.0 °F 54.0 °F 96% 29.94 in 10.0 mi NE 6.9 mph - N/A   Overcast
4:53 AM 55.0 °F 54.0 °F 96% 29.94 in 10.0 mi NE 5.8 mph - N/A   Overcast
5:53 AM 55.0 °F 54.0 °F 96% 29.96 in 10.0 mi NE 4.6 mph - N/A   Overcast
6:53 AM 54.0 °F 53.1 °F 97% 29.96 in 10.0 mi NNE 3.5 mph - N/A   Overcast
7:53 AM 55.0 °F 54.0 °F 96% 29.98 in 10.0 mi NNE 3.5 mph - N/A   Overcast
8:45 AM 55.4 °F 53.6 °F 94% 29.99 in 10.0 mi NNE 6.9 mph - N/A   Overcast
8:53 AM 57.0 °F 55.0 °F 93% 29.98 in 10.0 mi North 4.6 mph - N/A   Overcast
9:00 AM 57.2 °F 53.6 °F 88% 29.99 in 10.0 mi North 4.6 mph - N/A   Overcast
9:53 AM 59.0 °F 55.0 °F 87% 29.99 in 10.0 mi NE 6.9 mph - N/A   Overcast
10:53 AM 62.1 °F 55.9 °F 80% 29.98 in 10.0 mi North 9.2 mph - N/A   Overcast
11:53 AM 63.0 °F 55.0 °F 75% 29.98 in 10.0 mi NNE 9.2 mph - N/A   Mostly Cloudy
12:53 PM 64.9 °F 55.0 °F 70% 29.97 in 10.0 mi ENE 9.2 mph - N/A   Overcast
1:53 PM 68.0 °F 55.0 °F 63% 29.96 in 10.0 mi NE 5.8 mph - N/A   Mostly Cloudy
2:53 PM 68.0 °F 55.0 °F 63% 29.94 in 10.0 mi East 5.8 mph - N/A   Overcast
3:53 PM 70.0 °F 55.0 °F 59% 29.92 in 10.0 mi East 3.5 mph - N/A   Mostly Cloudy
4:53 PM 72.0 °F 54.0 °F 53% 29.91 in 10.0 mi East 8.1 mph - N/A   Overcast
5:53 PM 63.0 °F 57.9 °F 84% 29.93 in 6.0 mi NE 8.1 mph 20.7 mph 0.00 in Rain Light Rain
6:53 PM 66.0 °F 57.9 °F 75% 29.93 in 10.0 mi Calm Calm - 0.00 in   Mostly Cloudy
7:53 PM 64.9 °F 57.0 °F 75% 29.94 in 10.0 mi ESE 10.4 mph - 0.01 in   Overcast
8:53 PM 63.0 °F 55.0 °F 75% 29.96 in 10.0 mi East 4.6 mph - N/A   Scattered Clouds
9:53 PM 61.0 °F 57.0 °F 87% 29.97 in 10.0 mi Calm Calm - N/A   Mostly Cloudy
10:53 PM 59.0 °F 55.9 °F 90% 29.97 in 10.0 mi NNE 5.8 mph - N/A   Mostly Cloudy
11:53 PM 59.0 °F 55.0 °F 87% 29.96 in 10.0 mi Calm Calm - N/A   Clear